American Integrity — WDD2875 — position and weather

sailwx.info

Track history (hours):
 
Tides and Currents Weather Stations Pressure Air Temp Water Temp Dewpoint Dewpoint Depression Visibility Wind Speed Wind Dir Waves Ship Positions

American Integrity

Owner: American Steamship Company, Williamsville, NY. More information available from US FCC via Universal Licensing System and Coast Guard Vessel Documentation Center.

Last reported at 2014-Oct-24 15:30 UTC. Time now 2014-Oct-25 11:12 UTC.
Position N 47°02' W 085°52'.

; draft 8 m.

Type: Cargo ship. MMSI: 367120990.

Date/timePositionNaut miles runAvg speedWind from/ knotsBaromVisibWave heightAir tempDewpointWater temp
2014-Oct-24 15:30N 47°02' W 085°52'1212.7
2014-Oct-24 14:33N 46°58' W 085°36'64 7.9
2014-Oct-24 06:29N 46°26' W 084°15'8 7.7
2014-Oct-24 05:27N 46°19' W 084°09'7 7.2
2014-Oct-24 04:32N 46°13' W 084°07'10 9.9
2014-Oct-24 03:34N 46°04' W 084°01'9 9.4
2014-Oct-24 02:33N 45°56' W 083°55'1212.4
2014-Oct-24 01:33N 45°51' W 084°11'1312.6
2014-Oct-24 00:33N 45°51' W 084°29'1211.8
2014-Oct-23 23:33N 45°49' W 084°46'1312.5
2014-Oct-23 22:33N 45°51' W 085°03'1312.6
2014-Oct-23 21:33N 45°53' W 085°21'1212.4
2014-Oct-23 20:33N 45°53' W 085°39'1312.6
2014-Oct-23 19:33N 45°48' W 085°56'1312.7
2014-Oct-23 18:33N 45°41' W 086°11'1312.9
2014-Oct-23 17:33N 45°30' W 086°21'1312.8
2014-Oct-23 16:33N 45°19' W 086°30'1312.8
2014-Oct-23 15:33N 45°07' W 086°36'1712.9
2014-Oct-23 14:14N 44°51' W 086°43'1212.9
2014-Oct-23 13:20N 44°40' W 086°48'1012.9
2014-Oct-23 12:33N 44°30' W 086°53'1613.1
2014-Oct-23 11:20N 44°15' W 086°59'  
2014-Oct-20 12:17N 44°53' W 086°26'911.8
2014-Oct-20 11:33N 45°01' W 086°22'1211.9
2014-Oct-20 10:33N 45°13' W 086°18'1212.0
2014-Oct-20 09:33N 45°24' W 086°13'1211.8
2014-Oct-20 08:33N 45°35' W 086°08'1010.5
2014-Oct-20 07:33N 45°44' W 085°60'1111.2
2014-Oct-20 06:33N 45°49' W 085°46'1110.7
2014-Oct-20 05:33N 45°54' W 085°32'1111.1
2014-Oct-20 04:33N 45°53' W 085°16'1111.1
2014-Oct-20 03:33N 45°51' W 084°60'1111.3
2014-Oct-20 02:33N 45°49' W 084°44'10 9.7
2014-Oct-20 01:33N 45°52' W 084°30'1211.8
2014-Oct-20 00:33N 45°53' W 084°14'1211.7
2014-Oct-19 23:33N 45°56' W 083°57'66 6.5
2014-Oct-19 13:21N 46°48' W 084°56'1211.9
2014-Oct-19 12:20N 46°53' W 085°12'  
2014-Oct-16 10:07N 46°08' W 084°01'10 9.7
2014-Oct-16 09:04N 45°59' W 083°53'510.5
2014-Oct-16 08:33N 45°55' W 083°58'1212.0
2014-Oct-16 07:33N 45°51' W 084°14'1312.6
2014-Oct-16 06:33N 45°51' W 084°33'1212.4
2014-Oct-16 05:33N 45°50' W 084°50'1312.8
2014-Oct-16 04:33N 45°52' W 085°08'1312.7
2014-Oct-16 03:33N 45°53' W 085°26'1312.6
2014-Oct-16 02:33N 45°52' W 085°44'1312.6
2014-Oct-16 01:34N 45°49' W 086°02'1312.5
2014-Oct-16 00:33N 45°39' W 086°13'1312.4
2014-Oct-15 23:31N 45°29' W 086°24'  
Track history (hours):
 
Tides and Currents Weather Stations Pressure Air Temp Water Temp Dewpoint Dewpoint Depression Visibility Wind Speed Wind Dir Waves Ship Positions

American Integrity

Owner: American Steamship Company, Williamsville, NY. More information available from US FCC via Universal Licensing System and Coast Guard Vessel Documentation Center.

Last reported at 2014-Oct-24 15:30 UTC. Time now 2014-Oct-25 11:12 UTC.
Position N 47°02' W 085°52'.

; draft 8 m.

Type: Cargo ship. MMSI: 367120990.

Date/timePositionNaut miles runAvg speedWind from/ knotsBaromVisibWave heightAir tempDewpointWater temp
2014-Oct-24 15:30N 47°02' W 085°52'1212.7
2014-Oct-24 14:33N 46°58' W 085°36'64 7.9
2014-Oct-24 06:29N 46°26' W 084°15'8 7.7
2014-Oct-24 05:27N 46°19' W 084°09'7 7.2
2014-Oct-24 04:32N 46°13' W 084°07'10 9.9
2014-Oct-24 03:34N 46°04' W 084°01'9 9.4
2014-Oct-24 02:33N 45°56' W 083°55'1212.4
2014-Oct-24 01:33N 45°51' W 084°11'1312.6
2014-Oct-24 00:33N 45°51' W 084°29'1211.8
2014-Oct-23 23:33N 45°49' W 084°46'1312.5
2014-Oct-23 22:33N 45°51' W 085°03'1312.6
2014-Oct-23 21:33N 45°53' W 085°21'1212.4
2014-Oct-23 20:33N 45°53' W 085°39'1312.6
2014-Oct-23 19:33N 45°48' W 085°56'1312.7
2014-Oct-23 18:33N 45°41' W 086°11'1312.9
2014-Oct-23 17:33N 45°30' W 086°21'1312.8
2014-Oct-23 16:33N 45°19' W 086°30'1312.8
2014-Oct-23 15:33N 45°07' W 086°36'1712.9
2014-Oct-23 14:14N 44°51' W 086°43'1212.9
2014-Oct-23 13:20N 44°40' W 086°48'1012.9
2014-Oct-23 12:33N 44°30' W 086°53'1613.1
2014-Oct-23 11:20N 44°15' W 086°59'  
2014-Oct-20 12:17N 44°53' W 086°26'911.8
2014-Oct-20 11:33N 45°01' W 086°22'1211.9
2014-Oct-20 10:33N 45°13' W 086°18'1212.0
2014-Oct-20 09:33N 45°24' W 086°13'1211.8
2014-Oct-20 08:33N 45°35' W 086°08'1010.5
2014-Oct-20 07:33N 45°44' W 085°60'1111.2
2014-Oct-20 06:33N 45°49' W 085°46'1110.7
2014-Oct-20 05:33N 45°54' W 085°32'1111.1
2014-Oct-20 04:33N 45°53' W 085°16'1111.1
2014-Oct-20 03:33N 45°51' W 084°60'1111.3
2014-Oct-20 02:33N 45°49' W 084°44'10 9.7
2014-Oct-20 01:33N 45°52' W 084°30'1211.8
2014-Oct-20 00:33N 45°53' W 084°14'1211.7
2014-Oct-19 23:33N 45°56' W 083°57'66 6.5
2014-Oct-19 13:21N 46°48' W 084°56'1211.9
2014-Oct-19 12:20N 46°53' W 085°12'  
2014-Oct-16 10:07N 46°08' W 084°01'10 9.7
2014-Oct-16 09:04N 45°59' W 083°53'510.5
2014-Oct-16 08:33N 45°55' W 083°58'1212.0
2014-Oct-16 07:33N 45°51' W 084°14'1312.6
2014-Oct-16 06:33N 45°51' W 084°33'1212.4
2014-Oct-16 05:33N 45°50' W 084°50'1312.8
2014-Oct-16 04:33N 45°52' W 085°08'1312.7
2014-Oct-16 03:33N 45°53' W 085°26'1312.6
2014-Oct-16 02:33N 45°52' W 085°44'1312.6
2014-Oct-16 01:34N 45°49' W 086°02'1312.5
2014-Oct-16 00:33N 45°39' W 086°13'1312.4
2014-Oct-15 23:31N 45°29' W 086°24'  

Dump ship's entire track history